Flag for Germany Weather past 2 weeks in Cloppenburg, Lower Saxony, Germany

Now
57 °F

Refreshingly cool.


Feels Like: 54 °F
Forecast: 45 / 57 °F
Wind: 14 mph from Southwest

Location: Meppen-Mil

Current Time: May 29, 2015 at 8:43:01 PM

Latest Report: May 29, 2015 at 7:20 PM


Visibility: N/A

Pressure: 29.65 "Hg

Humidity: 51%

Dew point: 39 °F

Location of CloppenburgLocation

Historic Weather in Cloppenburg — Graph

°F

Cloppenburg temperature yesterday

Maximum temperature yesterday: 61 °F (at 5:20 PM)
Minimum temperature yesterday: 45 °F (at 11:20 PM)
Average temperature yesterday: 55 °F

Past Weeks' High & Low Weather Summary

 TemperatureHumidityPressure
High68 °F (May 22, 2:20 PM)100% (May 16, 5:20 AM)30.33 "Hg (May 16, 5:20 AM)
Low34 °F (May 16, 4:20 AM)24% (May 24, 6:20 PM)29.56 "Hg (May 19, 5:20 AM)
Average52 °F69%30.03 "Hg
* Reported May 14 7:20 PM — May 29 7:20 PM, Cloppenburg, Weather by CustomWeather, © 2015

Note: Actual official high and low records may vary slightly from our data, if they occured in-between our weather recording intervals... More about our weather records

Advertising

Cloppenburg weather history for previous 24 hours

 ConditionsComfort  
Time TempWeatherWind HumidityBarometerVisibility
7:20 PM
Fri, May 29
57 °FRefreshingly cool.14 mph51%29.65 "HgN/A
6:20 PM57 °FCool.3 mph63%29.68 "HgN/A
5:20 PM59 °FRefreshingly cool.9 mph51%29.68 "HgN/A
4:20 PM61 °FRefreshingly cool.10 mph45%29.71 "HgN/A
3:20 PM61 °FRefreshingly cool.10 mph45%29.71 "HgN/A
2:20 PM61 °FRefreshingly cool.10 mph45%29.74 "HgN/A
1:20 PM61 °FPartly sunny.13 mph48%29.74 "HgN/A
12:20 PM59 °FBroken clouds.12 mph55%29.77 "HgN/A
11:20 AM59 °FBroken clouds.8 mph51%29.80 "HgN/A
10:20 AM59 °FBroken clouds.8 mph55%29.83 "HgN/A
9:20 AM55 °FBroken clouds.7 mph72%29.83 "HgN/A
8:20 AM52 °FBroken clouds.5 mph77%29.86 "HgN/A
7:20 AM46 °FBroken clouds.3 mph93%29.86 "HgN/A
6:20 AM39 °FPartly cloudy.2 mph93%29.86 "HgN/A
5:20 AM37 °FChilly.1 mph93%29.89 "Hg1 mi
4:20 AM37 °FChilly.1 mph93%29.89 "Hg0 mi
3:20 AM39 °FChilly.1 mph93%29.92 "Hg1 mi
2:20 AM39 °FChilly.1 mph93%29.92 "Hg1 mi
1:20 AM39 °FChilly.1 mph93%29.92 "Hg1 mi
12:20 AM41 °FQuite cool.2 mph87%29.92 "Hg6 mi
11:20 PM
Thu, May 28
45 °FQuite cool.1 mph81%29.92 "HgN/A
10:20 PM46 °FCool.2 mph76%29.92 "HgN/A
9:20 PM54 °FCool.7 mph54%29.92 "HgN/A
8:20 PM55 °FRefreshingly cool.7 mph55%29.92 "HgN/A
Weather by CustomWeather, © 2015

See weather overviewHow to use our weather pages